GFSWCAN_500_rhum_141.txt.gz
RH
100 100 100 100 100 100 100 100 100 97 93 93 93 92 93 98 100 91 82 77 71 59 46 51 51 44 50 44 36 29 25 21 18 36 40 100 100 94 100 92 80 60 75 52 24 22 21 39 56 48 71 98 100 91
100 100 100 100 100 100 100 100 100 98 95 91 88 87 88 84 82 80 62 71 68 51 35 38 39 41 37 35 30 24 19 23 31 91 91 84 95 100 100 97 98 69 45 29 26 31 26 32 51 36 36 40 59 93
100 100 100 100 100 100 100 100 100 99 95 93 93 93 91 78 80 71 52 44 38 30 23 21 23 39 30 24 22 15 16 42 100 100 100 100 96 94 100 100 100 56 34 24 37 34 36 33 32 30 21 30 35 30
100 100 100 100 100 100 100 100 97 92 89 86 71 71 69 51 66 97 91 65 83 74 19 17 19 16 15 12 12 12 62 86 100 98 100 100 95 96 100 98 92 58 42 51 51 43 35 31 26 21 16 18 20 15
59 62 70 78 90 94 91 82 70 61 64 63 55 69 93 83 98 100 78 96 99 54 49 18 21 34 52 54 19 26 95 100 100 93 100 100 100 100 100 100 65 51 66 61 45 43 35 33 26 23 17 17 12 8
50 57 61 63 60 60 56 62 60 52 32 90 100 99 90 100 100 94 91 69 39 77 100 100 100 100 100 100 94 52 68 74 78 90 84 100 100 99 100 91 62 74 74 68 63 54 34 19 19 20 17 14 13 12
95 100 100 100 100 98 88 74 53 51 100 100 100 94 100 100 100 100 100 100 100 100 99 100 100 100 100 100 52 46 92 97 100 100 100 100 100 93 97 95 82 72 69 50 32 26 22 16 14 14 12 10 12 12
100 100 99 76 51 40 51 36 65 100 100 100 100 100 100 100 100 100 100 100 93 100 99 92 100 100 100 100 100 100 100 100 100 100 100 95 87 74 59 44 30 31 31 25 20 15 12 13 25 27 26 48 100 90
100 96 67 87 99 100 100 100 100 100 100 100 100 100 100 100 95 94 99 95 98 100 100 100 100 100 100 100 100 100 100 100 96 82 80 66 57 44 35 32 36 38 30 21 16 14 22 38 38 54 99 100 98 68
87 55 84 99 100 100 100 100 100 100 100 99 100 100 96 100 100 99 86 100 100 100 90 90 70 58 72 86 93 96 88 79 60 40 33 30 27 18 20 39 30 20 18 20 31 50 78 96 100 100 100 100 96 96
76 57 96 99 99 79 84 94 96 93 100 95 92 100 100 97 86 62 50 29 25 25 40 44 41 47 47 48 59 56 48 38 24 21 23 14 12 22 30 22 18 27 33 64 74 99 99 94 100 100 100 94 75 52
86 80 64 57 68 61 45 43 78 69 57 61 56 49 43 29 25 27 21 19 16 17 26 19 32 25 28 25 24 26 23 21 19 18 18 18 28 28 21 24 36 43 64 96 100 82 97 100 85 65 68 67 64 82
62 58 56 55 38 41 36 37 54 57 44 38 33 28 25 22 21 19 16 14 14 14 15 18 17 19 20 20 17 17 20 21 23 20 33 35 45 50 61 70 60 69 89 88 98 98 72 59 64 87 96 97 96 94
41 35 34 29 29 35 44 48 42 45 35 34 25 22 23 22 29 20 14 20 55 74 66 57 61 56 49 46 54 56 51 77 82 68 82 100 99 100 93 76 75 68 69 77 72 71 77 90 99 99 94 48 21 14
71 85 94 83 59 55 42 41 62 81 84 100 97 100 100 100 100 92 34 87 95 100 100 98 100 100 94 77 69 90 81 80 87 75 68 83 98 100 92 82 79 76 76 78 77 88 98 100 94 60 32 15 17 20
72 59 53 59 69 78 82 83 95 99 100 100 100 100 100 94 85 88 98 100 100 100 95 86 88 81 94 98 95 89 70 77 68 68 68 73 75 66 62 69 67 64 66 81 96 100 100 72 38 35 20 19 26 32
99 94 87 90 86 71 62 66 66 68 53 100 100 100 100 100 100 100 100 98 100 100 100 100 96 87 81 74 74 68 73 80 62 67 72 75 76 79 66 65 78 89 99 100 100 72 30 30 34 39 28 20 24 31
88 98 92 92 96 93 84 83 82 75 66 81 89 98 93 87 91 86 99 100 100 99 80 87 95 92 80 71 71 70 68 68 68 64 61 60 59 70 89 94 97 100 88 36 19 22 28 28 35 39 36 31 30 33
91 90 100 100 97 92 85 82 72 82 91 77 68 78 92 90 85 82 70 66 82 87 68 68 67 58 49 60 81 92 97 92 86 83 82 88 92 94 60 44 44 30 17 19 26 28 28 29 30 33 34 34 33 29
100 99 99 92 86 87 81 77 70 66 77 86 93 92 83 75 67 68 68 62 59 60 57 48 40 28 31 39 68 92 96 98 99 99 99 97 89 56 20 17 16 16 20 22 20 24 26 26 28 28 20 19 19 21
64 100 100 100 98 90 79 70 71 71 67 72 82 81 79 76 69 59 53 52 52 58 52 38 25 23 26 36 55 89 95 94 95 93 93 90 46 19 18 18 16 18 24 25 24 20 18 20 22 20 21 20 21 22
38 44 66 99 100 99 96 95 92 85 74 70 78 68 58 59 58 54 51 50 50 50 41 37 29 30 56 74 77 92 96 92 90 90 89 82 29 18 18 16 15 17 24 28 30 29 29 24 22 25 26 24 25 27
27 28 38 44 64 89 100 100 96 91 85 77 66 62 59 55 53 47 49 57 58 51 42 40 42 50 73 86 90 94 95 95 91 88 86 53 20 19 15 13 13 16 23 28 30 33 33 29 30 29 28 29 31 33
50 35 30 27 35 43 59 88 100 100 98 93 79 66 61 60 57 53 46 59 74 63 56 54 51 54 75 87 90 92 94 95 95 94 90 46 20 19 14 12 14 16 21 26 33 36 35 35 31 27 30 34 32 31
61 62 50 34 27 26 33 36 42 62 88 98 94 90 74 62 52 45 44 54 56 64 65 61 63 62 69 85 86 88 87 88 87 90 93 54 21 20 18 17 17 18 20 24 26 29 28 29 30 33 32 27 24 34
44 62 64 52 46 42 38 32 36 37 34 39 67 90 99 95 88 77 78 71 53 52 52 57 69 69 64 70 82 80 78 76 79 82 89 88 48 22 22 21 23 24 25 26 27 28 30 31 31 28 23 22 30 38
41 43 57 86 80 66 48 42 38 31 30 30 31 34 46 67 86 97 97 93 84 74 74 74 81 84 78 71 78 88 86 86 86 85 85 91 88 55 23 23 25 26 27 27 27 27 26 25 22 20 20 26 36 27
48 47 57 80 82 89 80 67 57 46 41 36 27 23 20 23 28 38 65 84 95 100 97 93 90 86 83 85 86 87 90 95 95 91 91 97 98 86 57 30 20 20 22 22 22 20 19 19 19 20 25 38 32 20
94 82 70 66 69 77 85 86 79 59 48 44 38 30 25 21 19 19 22 31 52 74 88 94 92 87 82 79 81 89 92 93 94 94 88 93 98 95 89 80 66 48 35 27 23 21 25 32 30 26 38 39 26 21
100 100 100 98 87 76 74 62 70 72 73 76 80 76 62 42 32 28 22 20 21 26 42 58 75 85 86 89 91 89 89 91 96 100 100 91 79 74 66 64 62 61 59 58 59 55 45 34 26 37 45 35 26 27
85 97 100 100 100 100 98 93 73 55 50 56 64 70 82 81 76 56 40 34 30 23 19 21 29 45 60 71 75 76 84 90 90 90 94 98 100 98 90 87 87 90 88 81 69 55 44 33 41 49 48 36 32 39
90 91 96 100 100 100 100 100 100 100 99 84 60 51 56 66 81 90 82 64 50 34 30 26 24 21 22 30 42 62 80 83 87 93 96 97 98 100 100 100 100 100 99 92 84 65 47 44 52 57 56 43 41 52
94 97 96 93 86 95 99 100 100 100 100 100 100 98 77 54 52 64 71 74 76 70 59 42 33 30 28 23 21 23 32 59 84 88 98 100 100 100 100 100 100 100 100 97 84 64 56 57 67 73 66 53 62 71

GFSWCAN_500_rhum_144.txt.gz
RH
100 100 100 100 100 100 100 100 100 99 99 93 91 92 91 85 77 68 74 76 71 58 52 53 61 59 66 65 62 59 58 53 49 40 33 27 20 18 14 38 86 96 100 100 100 88 51 60 39 47 33 38 48 54
100 100 100 100 100 100 100 100 99 90 83 82 81 82 84 83 84 74 72 87 80 60 45 54 53 51 57 69 65 57 49 47 44 40 36 28 30 21 28 55 100 100 88 98 100 90 58 42 64 45 25 21 30 30
100 100 100 100 100 100 100 100 100 91 81 77 85 88 83 78 77 72 70 76 72 58 43 35 38 47 43 41 46 42 35 35 36 38 32 27 48 66 47 42 92 98 100 100 100 70 58 65 44 40 26 19 15 20
100 100 100 100 100 100 100 98 97 94 97 95 89 83 80 80 80 74 56 47 50 70 47 27 42 31 26 23 24 23 26 36 33 31 24 22 72 100 100 96 76 92 100 98 81 75 77 49 36 33 32 31 28 23
96 100 100 100 100 100 100 100 100 100 92 83 72 58 59 50 46 76 87 83 91 97 70 66 52 41 19 16 19 21 22 23 22 22 27 57 100 100 92 99 84 70 85 97 81 100 71 53 47 43 41 34 32 29
68 71 69 86 98 99 90 81 77 65 50 43 40 40 66 99 98 100 91 91 100 81 61 96 98 98 25 36 78 59 13 13 15 28 98 100 100 100 100 100 100 100 100 100 86 65 73 78 63 59 53 47 40 33
51 52 58 61 64 66 64 60 54 56 54 45 81 82 82 100 100 86 88 99 100 100 100 100 100 100 100 100 100 99 29 46 51 86 98 99 100 100 97 95 100 100 100 97 90 80 81 75 67 52 34 27 20 16
100 100 100 100 100 96 83 73 60 50 61 99 71 82 100 100 100 98 100 100 100 100 100 100 100 100 100 100 100 82 69 92 97 100 100 100 100 98 80 100 91 99 100 84 67 65 50 30 22 20 16 13 12 12
100 97 94 62 43 48 44 35 38 68 100 100 99 100 100 100 100 100 100 100 100 100 100 100 100 100 100 100 100 100 76 94 100 100 100 100 100 68 84 59 59 76 63 41 32 22 17 15 14 15 18 25 40 30
91 60 78 94 100 100 100 97 100 100 97 94 100 100 100 100 100 87 94 100 100 100 100 95 95 96 100 100 100 100 100 100 100 100 99 88 86 60 50 36 26 24 19 17 22 21 17 38 50 64 75 78 88 100
57 95 97 98 100 100 100 100 99 98 100 89 99 100 100 100 100 100 100 89 72 37 38 34 48 46 47 56 80 93 99 99 98 88 65 38 23 26 15 11 13 13 15 22 20 20 51 61 67 80 90 95 96 100
99 96 97 100 100 100 100 100 98 96 100 100 100 100 99 74 57 42 28 20 19 16 23 21 31 26 31 33 32 39 33 32 25 24 20 18 17 10 17 23 20 16 20 22 38 43 54 62 76 90 96 92 85 87
64 79 71 56 56 52 75 87 76 69 61 73 61 65 36 31 25 23 21 19 16 18 19 18 18 18 22 22 22 21 20 19 18 14 17 20 17 22 18 33 31 31 42 48 38 44 69 91 88 77 85 90 99 100
47 44 41 44 49 52 43 47 49 42 39 36 33 30 27 27 24 23 21 16 14 24 26 52 44 41 25 19 18 14 18 23 23 22 100 77 23 13 32 62 51 38 36 52 60 75 81 75 72 92 100 100 85 46
60 37 34 33 34 29 36 55 55 48 41 38 35 41 25 66 45 51 26 14 16 47 76 68 84 87 66 40 43 39 46 58 74 89 92 99 60 45 67 78 80 75 71 72 76 76 77 86 100 100 86 45 16 16
74 70 89 90 84 73 56 45 57 87 100 100 100 100 82 69 80 91 51 17 17 40 70 99 83 92 100 85 65 61 72 90 84 91 92 73 68 75 82 81 76 70 70 66 66 75 92 100 100 72 38 22 19 23
94 77 79 58 65 52 61 69 84 86 69 58 53 78 100 100 100 100 83 74 97 100 100 77 88 86 83 80 81 81 89 76 64 63 59 59 64 63 64 59 66 68 64 69 80 99 100 100 51 31 32 24 18 23
100 100 100 100 100 100 91 87 97 97 86 70 77 86 98 99 100 100 100 99 100 100 99 100 100 95 95 85 63 64 70 70 58 52 52 58 61 67 66 58 65 83 92 97 100 98 77 26 25 32 40 37 30 26
80 91 99 100 99 90 83 81 74 83 86 84 81 85 92 96 95 95 91 97 100 100 99 94 86 91 79 60 45 49 64 74 78 72 64 59 56 61 75 88 92 95 99 89 30 18 20 26 28 30 33 36 36 36
96 98 92 99 93 89 75 64 59 68 80 75 73 60 63 85 91 86 86 81 74 72 81 93 83 59 42 35 34 37 52 92 95 93 94 95 97 96 96 70 21 17 17 17 17 23 26 27 27 29 31 32 21 20
45 71 100 100 100 99 85 69 55 57 67 73 73 66 71 67 64 62 66 64 63 64 60 53 45 34 39 34 28 28 40 72 97 97 96 94 98 97 81 39 18 18 16 16 22 21 19 21 25 31 31 22 22 21
36 39 48 75 98 96 91 85 80 68 54 51 69 72 64 69 68 60 50 53 57 57 47 46 38 34 34 31 30 40 69 79 97 98 97 95 93 91 46 20 18 18 16 20 25 27 27 25 23 22 24 26 26 25
49 37 35 43 46 58 90 100 94 90 82 73 72 64 55 51 53 54 49 50 52 49 41 38 36 34 31 30 37 58 81 93 97 93 91 94 92 88 42 20 18 16 15 19 26 29 31 32 31 28 29 30 29 29
72 60 47 34 29 34 48 69 94 100 99 98 94 90 72 60 51 50 40 44 53 47 41 43 46 44 35 36 44 54 84 99 99 97 95 96 96 85 30 20 16 13 14 17 25 31 33 36 35 34 34 28 29 34
100 87 68 59 50 34 32 46 55 54 66 88 95 100 100 99 73 55 52 61 59 50 45 46 53 58 56 59 60 56 70 93 98 97 96 95 99 90 34 20 17 15 16 19 24 28 35 39 39 37 29 31 33 32
100 94 66 66 70 68 54 44 42 42 49 45 44 51 70 92 97 96 98 79 58 52 47 41 39 51 60 57 58 63 61 72 86 90 89 89 92 97 72 24 20 18 20 20 22 25 28 32 32 31 32 32 29 24
90 64 53 60 87 100 88 68 54 46 42 38 35 37 35 35 44 66 92 100 98 90 78 64 57 52 51 53 64 70 68 64 76 85 82 81 85 88 94 83 31 22 22 24 26 27 28 29 30 30 28 25 22 20
71 61 58 60 68 94 98 92 78 70 59 48 44 43 35 27 28 29 34 52 71 87 99 100 92 76 69 70 78 86 87 80 79 90 90 90 90 87 88 95 91 47 22 23 25 26 27 27 26 24 21 20 22 24
90 82 72 65 59 67 89 100 100 99 96 87 79 69 54 41 34 26 21 20 22 28 40 69 89 96 94 91 87 84 83 84 90 93 97 100 97 92 94 100 100 86 56 36 28 26 26 25 23 22 28 42 43 33
98 100 100 100 100 100 100 94 98 95 89 84 77 68 59 59 64 60 47 33 26 20 18 22 31 51 75 91 95 93 88 84 84 90 95 98 96 95 86 82 89 94 94 91 82 73 67 62 61 62 55 51 36 41
100 100 100 100 100 100 100 100 100 100 100 96 86 74 66 67 77 77 84 77 62 41 32 24 19 21 26 37 56 77 89 91 93 96 97 96 99 100 100 99 94 86 83 80 79 82 82 80 76 68 62 52 42 53
100 100 100 100 100 100 100 100 100 100 100 100 100 100 99 87 70 66 62 60 64 73 71 54 38 31 26 24 24 30 45 62 79 82 84 90 95 98 100 100 100 100 100 100 100 100 100 97 91 86 73 56 57 70
100 100 100 100 100 100 99 93 81 89 100 100 100 100 95 98 100 98 81 64 55 55 61 68 74 66 46 32 30 29 25 25 30 46 67 82 86 92 99 100 100 100 100 100 100 100 100 100 100 93 82 76 76 87

GFSWCAN_500_rhum_150.txt.gz
RH
95 88 99 100 100 100 100 100 100 100 100 100 100 100 99 100 100 98 95 93 93 92 97 88 81 78 80 75 71 67 66 55 53 53 51 46 38 39 35 35 37 40 41 45 39 45 49 47 90 91 98 42 40 61
100 100 90 95 100 100 100 98 99 100 100 100 100 99 99 99 99 100 93 86 84 90 88 81 76 77 80 74 68 61 58 50 53 56 51 53 39 39 38 36 39 38 43 39 32 27 23 98 98 94 100 70 60 59
100 100 100 100 98 100 100 100 100 100 99 100 100 100 100 98 99 96 89 85 79 70 71 67 77 76 70 80 65 52 54 58 55 54 49 44 38 37 37 36 41 43 43 60 63 29 18 15 54 56 92 99 66 71
100 100 100 100 100 99 99 96 99 99 100 100 98 95 91 87 86 85 83 76 69 60 53 57 62 64 67 59 55 47 48 43 46 44 35 32 30 31 33 37 36 39 35 30 24 19 23 68 80 89 97 100 78 72
100 100 100 100 100 100 100 100 100 100 100 100 96 94 92 85 73 63 59 65 68 56 42 41 47 60 63 41 32 29 30 35 32 30 27 27 33 34 33 36 26 31 27 25 17 91 68 100 100 92 75 94 96 98
87 100 100 100 100 100 100 100 100 100 100 99 98 96 88 80 68 59 47 58 76 64 40 30 68 78 43 42 47 55 47 39 29 19 20 21 22 25 25 22 23 25 52 97 96 100 94 100 100 100 100 96 85 72
62 69 100 100 100 100 100 100 99 100 100 100 100 98 88 65 47 59 89 100 99 71 46 68 99 93 87 100 99 100 100 83 30 18 16 18 23 23 16 15 28 91 99 100 100 86 86 94 99 99 98 100 94 78
99 62 77 100 100 100 100 100 100 100 100 100 99 82 52 45 84 100 100 99 98 73 83 98 94 86 100 98 89 100 100 100 100 60 18 16 19 18 20 31 73 98 100 100 100 93 86 100 100 100 86 62 31 31
100 94 80 87 88 92 98 100 100 98 96 83 61 49 50 87 100 100 100 100 100 100 100 95 97 100 100 100 99 100 100 98 100 54 22 25 26 23 75 98 100 100 79 68 77 100 98 89 51 21 24 30 23 15
100 100 100 100 100 100 98 79 61 57 55 57 57 72 92 94 100 100 100 100 100 100 100 98 100 100 100 100 100 100 100 96 93 100 89 84 89 98 100 100 94 83 54 26 16 27 22 14 14 15 27 32 25 22
84 66 70 82 84 78 58 60 74 63 61 52 76 100 100 100 99 100 100 100 99 78 47 86 61 88 100 100 100 100 100 100 100 100 100 96 89 83 80 64 25 14 16 16 16 15 13 13 15 37 44 33 26 65
92 95 98 93 100 100 100 55 45 56 49 81 100 100 99 94 96 100 100 76 24 22 24 44 36 49 96 100 100 100 100 93 100 92 85 88 78 41 25 16 14 15 15 14 13 11 14 19 22 28 37 38 71 84
95 100 100 100 100 100 99 42 46 50 84 100 100 96 85 94 100 100 65 24 19 17 21 24 20 21 27 34 64 68 68 89 95 72 70 46 26 12 12 12 13 16 15 14 18 28 42 43 44 47 66 97 88 64
91 95 87 92 100 100 100 100 100 100 100 100 91 82 100 99 71 45 29 29 25 17 20 22 21 18 14 19 22 23 22 19 16 14 13 12 16 15 13 14 32 38 43 36 31 37 40 54 82 92 86 86 81 78
72 76 80 97 82 87 94 90 93 100 100 98 96 91 52 43 39 38 29 25 27 25 17 50 78 58 47 34 30 25 24 22 19 18 19 24 29 30 28 34 63 78 75 66 52 40 40 59 84 91 91 94 89 85
42 45 48 56 52 51 52 58 50 47 43 40 34 29 23 19 16 17 18 17 20 16 14 14 39 65 99 88 87 81 60 61 66 90 98 100 100 100 100 100 90 91 95 89 80 71 63 69 75 83 95 97 87 56
71 42 35 31 33 36 35 42 49 38 30 20 18 18 22 37 46 45 39 35 18 14 14 14 36 84 80 100 100 100 94 99 100 100 100 100 99 99 88 77 77 84 75 68 57 53 58 68 74 85 100 100 76 37
100 97 98 100 83 63 53 62 43 28 28 57 89 87 78 82 78 90 93 92 93 99 100 100 98 100 100 100 100 100 99 95 88 82 80 78 72 68 66 66 66 58 59 52 50 53 58 78 98 100 100 97 46 31
100 100 100 97 95 98 99 100 100 100 100 100 96 100 100 100 100 100 100 100 100 100 100 100 98 100 100 100 100 99 72 53 58 74 80 80 70 62 60 53 52 50 45 45 53 81 95 100 100 85 58 33 30 39
90 100 100 100 100 100 99 92 100 99 100 100 100 100 100 100 100 100 100 100 100 100 100 100 100 100 100 100 91 67 51 37 30 32 35 62 93 95 88 81 72 64 68 83 73 55 69 89 33 21 23 28 30 34
80 75 79 100 100 100 98 78 82 98 100 100 100 100 100 96 96 99 100 100 100 100 95 93 90 88 85 90 81 63 49 36 28 26 37 53 76 100 100 99 97 98 96 82 33 19 18 18 19 25 29 29 27 29
96 86 86 68 69 96 92 91 92 93 98 100 100 100 98 91 82 68 71 85 96 95 83 77 76 66 59 54 54 63 44 35 26 22 23 45 76 96 100 100 100 99 97 54 21 19 18 18 22 21 21 24 25 27
100 100 89 64 64 60 57 84 100 100 99 88 87 80 73 71 64 59 48 46 54 60 44 40 35 37 45 44 39 37 36 34 30 24 22 35 72 92 100 100 100 100 97 46 22 19 18 20 23 25 25 24 24 23
100 100 100 100 86 58 45 49 62 77 96 100 100 97 87 72 56 45 40 43 40 39 35 29 27 26 25 26 30 34 36 32 28 24 20 26 49 83 97 100 100 100 100 62 23 18 16 18 24 28 29 30 31 31
100 100 100 95 100 100 98 54 53 56 63 65 63 90 100 98 89 83 87 77 56 42 38 33 29 29 26 24 23 25 27 30 30 25 27 28 39 63 88 98 99 100 99 57 22 17 15 16 21 27 31 32 34 34
100 100 100 100 100 100 100 100 78 55 48 52 60 58 60 70 81 87 98 99 95 87 79 70 61 50 40 34 32 32 32 34 35 34 33 43 50 55 76 90 95 97 100 82 29 20 17 18 19 25 30 32 36 38
100 99 100 100 100 100 100 100 100 95 66 58 51 48 49 45 49 54 57 66 76 83 93 100 100 94 74 58 51 42 36 35 35 36 40 54 54 57 64 80 88 90 94 100 86 38 21 20 21 23 26 32 34 34
100 100 100 100 100 100 100 100 100 100 100 90 72 59 50 42 38 37 36 33 36 38 38 44 70 92 98 98 88 72 59 49 43 39 42 51 57 65 65 73 87 86 87 90 97 99 68 29 22 24 26 28 29 30
100 100 100 100 100 100 100 100 100 98 96 100 100 100 86 71 59 55 50 46 44 40 34 30 29 32 46 72 86 92 95 92 81 68 65 68 82 89 86 81 94 100 100 97 96 97 100 88 55 32 25 26 27 27
100 100 100 100 100 100 100 100 99 95 97 100 100 100 100 100 95 88 84 82 78 73 69 61 45 32 25 22 26 35 52 70 88 96 97 90 94 99 95 97 100 100 100 100 100 100 100 100 96 82 62 50 44 45
100 100 100 100 100 100 100 100 100 100 100 100 100 100 100 100 100 99 98 98 96 90 83 73 64 51 46 46 37 25 20 20 26 44 72 92 100 100 100 98 97 100 100 100 100 98 94 97 100 100 100 100 99 94
100 100 100 100 100 100 100 100 100 100 100 100 100 100 100 100 100 99 97 97 100 100 100 98 90 77 65 59 57 63 55 38 28 19 18 31 58 83 99 100 100 100 100 100 100 100 100 95 87 85 89 95 96 98
100 100 100 100 100 100 100 100 100 100 100 100 100 100 100 100 100 100 100 100 98 93 91 92 93 95 96 91 68 57 62 69 66 52 37 23 19 24 39 59 88 100 100 100 100 100 100 100 100 100 100 100 100 100

GFSWCAN_500_rhum_153.txt.gz
RH
100 100 100 100 100 98 98 100 100 100 100 100 98 97 99 100 100 100 100 99 100 100 100 100 100 100 100 100 100 96 96 87 84 83 78 71 63 57 53 43 40 38 43 63 81 96 76 64 55 64 66 85 93 80
100 100 98 91 100 100 97 99 98 100 100 96 100 100 100 100 100 100 97 100 100 100 100 99 100 100 99 97 98 80 92 83 82 76 64 55 42 38 38 34 39 33 49 48 71 38 59 93 40 59 100 50 81 98
100 97 99 96 93 97 99 96 100 100 100 100 100 100 100 100 99 100 100 100 100 100 100 99 100 97 97 98 90 81 70 71 62 53 48 43 34 39 36 33 32 48 39 70 81 47 57 52 40 31 62 93 88 84
95 100 100 100 100 100 98 100 97 93 95 99 100 100 100 99 97 96 90 90 95 98 93 87 85 83 73 66 62 58 58 48 45 45 43 40 35 37 32 31 30 28 49 58 43 35 64 68 64 61 26 18 15 26
100 100 100 100 100 100 100 100 100 100 100 100 97 95 94 94 92 86 87 94 85 74 64 63 66 63 50 45 42 39 37 37 33 33 35 33 35 36 30 30 16 29 32 44 32 43 39 34 30 25 18 35 42 61
96 100 100 100 100 100 100 100 100 100 100 100 100 100 95 98 93 86 87 81 68 57 49 50 56 50 38 31 27 26 23 24 27 31 32 26 24 30 24 19 18 23 29 34 32 35 28 21 23 24 34 99 100 100
72 96 100 100 100 100 100 100 100 99 99 91 94 90 80 79 73 70 67 67 49 41 38 45 51 38 38 44 86 85 78 70 78 95 87 81 42 23 18 13 26 23 27 31 28 22 23 87 85 87 100 100 100 100
100 71 99 100 100 100 100 100 100 100 100 100 87 84 73 69 69 55 52 74 67 56 54 58 70 69 65 74 99 99 86 68 64 96 98 62 31 20 14 19 25 20 20 22 34 90 100 94 100 100 100 98 100 98
99 93 69 99 100 100 100 100 100 100 98 96 94 89 78 67 54 85 86 78 100 100 100 100 85 97 91 97 99 100 99 90 82 97 98 72 25 46 30 23 30 32 70 100 100 100 100 95 96 95 100 100 69 23
100 100 89 95 100 100 98 97 100 100 99 96 91 84 52 48 100 100 100 99 100 100 100 100 90 100 100 100 100 100 100 100 84 62 35 47 62 100 84 82 100 100 100 100 99 99 78 81 68 66 60 42 22 20
95 95 96 97 99 100 100 100 94 98 98 87 61 55 73 100 100 100 98 100 100 97 92 99 100 100 100 100 100 100 100 100 100 100 100 100 100 100 100 100 86 55 33 18 17 16 16 15 15 19 26 33 30 29
50 54 55 62 69 65 74 89 70 64 59 58 67 95 100 100 99 100 96 100 84 38 83 94 57 100 100 100 100 100 100 98 100 90 81 97 99 83 68 44 16 16 16 16 14 13 12 13 17 20 22 24 26 29
94 91 99 100 100 100 96 58 72 72 69 96 100 100 98 98 96 89 100 47 49 22 26 43 46 61 69 84 100 100 100 100 100 90 89 89 47 30 25 15 13 14 13 13 13 13 13 21 26 35 26 33 36 55
100 100 100 100 100 58 76 53 74 63 95 100 100 100 100 96 100 87 54 25 21 17 18 31 30 24 16 24 33 30 40 64 42 31 36 42 21 17 16 16 16 14 14 14 14 16 27 33 49 73 95 100 99 76
98 100 100 100 100 78 52 64 64 99 100 96 98 95 88 93 67 43 29 28 28 29 16 28 32 28 25 25 19 18 21 19 16 17 41 50 37 15 16 15 14 14 18 27 34 36 31 38 50 72 76 66 68 88
66 66 86 96 100 100 100 100 100 100 100 100 96 85 57 58 44 25 41 38 36 39 27 17 31 51 69 67 52 50 40 31 52 76 54 31 35 35 34 52 58 33 53 70 70 70 65 65 70 70 68 64 78 94
47 46 53 56 57 69 83 69 65 58 60 55 44 37 27 22 18 25 20 22 21 21 19 16 14 18 48 65 72 91 63 67 67 62 67 81 92 100 98 94 96 94 97 100 97 95 79 66 64 68 67 72 93 98
100 62 40 36 35 33 40 56 53 46 40 34 25 27 22 24 35 41 28 18 17 16 16 20 23 42 69 100 100 100 100 90 85 97 97 94 93 87 80 69 60 63 68 70 73 66 56 56 61 66 84 99 99 100
100 100 100 100 94 76 52 46 43 35 34 29 42 56 86 81 77 74 82 94 94 92 61 46 76 100 100 98 97 100 100 90 68 72 75 76 77 78 72 62 57 60 62 57 52 50 52 66 92 100 100 100 100 77
100 100 100 100 100 100 100 100 100 100 100 100 92 100 100 98 100 100 100 100 100 100 100 100 98 98 100 100 100 99 94 55 47 40 34 37 41 63 95 98 91 82 72 64 59 72 78 95 100 99 58 30 23 25
96 100 100 100 100 100 90 80 80 84 94 100 100 96 100 100 100 100 100 100 100 100 100 100 100 100 100 100 100 95 74 57 42 29 26 28 28 43 68 96 95 92 94 96 97 86 44 20 19 33 27 22 27 28
96 88 90 99 100 100 100 88 77 88 88 97 94 100 100 95 97 95 94 94 100 100 100 100 100 100 97 84 72 64 76 69 43 33 26 26 22 25 58 84 99 100 100 100 100 80 34 19 18 18 20 24 28 28
100 100 100 99 95 91 95 93 86 80 84 84 90 93 94 94 84 75 65 61 64 68 70 77 78 76 81 80 65 54 48 43 40 35 32 28 22 19 27 68 99 100 100 100 100 55 21 20 19 19 22 22 21 22
100 100 100 100 97 97 95 91 84 76 69 84 99 93 76 73 70 63 60 58 49 40 36 37 39 41 42 39 35 33 35 34 28 27 27 26 24 23 22 32 81 100 100 100 100 77 32 20 18 20 24 27 29 31
100 100 100 100 93 94 100 100 96 77 65 69 59 67 88 97 86 67 61 52 45 41 37 32 28 28 28 28 28 25 22 22 19 17 20 21 20 20 20 24 50 89 100 100 100 93 35 19 17 18 23 30 34 36
100 100 98 100 97 100 100 100 100 100 90 61 58 53 54 60 58 76 97 96 90 81 77 74 67 53 40 32 27 26 27 25 22 20 18 22 26 25 22 24 40 64 94 100 100 99 44 21 18 17 19 27 37 41
100 100 100 100 100 100 100 100 100 100 100 99 75 65 63 46 41 40 53 68 80 87 93 97 99 99 97 91 78 64 53 45 38 34 28 31 31 32 33 40 48 56 74 98 100 100 96 42 22 20 22 27 36 41
100 100 100 100 100 100 100 100 100 100 100 100 100 100 87 70 57 48 47 46 51 53 57 57 60 61 64 80 94 100 98 85 69 59 48 42 38 35 34 41 53 58 63 83 96 100 100 100 73 28 24 27 33 38
93 92 100 100 100 100 100 100 100 100 100 100 100 100 100 100 100 80 62 53 45 42 42 38 33 34 33 34 36 46 74 94 100 100 95 81 67 59 53 50 57 71 74 77 96 99 100 100 100 97 62 34 30 33
100 100 100 100 100 100 100 100 100 100 100 100 100 100 100 100 100 100 98 84 70 64 61 59 54 50 46 42 35 28 27 34 50 71 87 94 99 98 87 79 85 95 99 96 99 100 100 100 100 100 100 89 68 49
100 100 100 100 100 100 100 99 100 100 100 100 100 100 100 100 100 100 100 100 100 100 99 99 97 92 88 82 74 52 32 25 21 22 28 41 57 78 97 100 99 100 100 100 100 100 100 100 100 100 100 100 100 91
100 100 100 100 99 93 100 100 100 100 100 100 100 100 100 100 100 100 100 100 100 100 100 100 99 98 94 88 78 69 59 50 46 48 36 24 19 21 32 62 91 99 100 100 100 100 100 100 100 100 100 95 93 96
100 100 100 100 100 98 100 100 100 100 100 100 100 100 100 100 100 100 100 100 100 100 100 100 99 99 98 95 94 93 93 85 64 55 54 57 48 36 25 19 23 46 72 94 100 100 100 100 100 100 100 100 100 100

GFSWCAN_500_rhum_156.txt.gz
RH
55 58 58 57 58 50 49 56 77 96 98 94 94 93 95 100 99 99 100 100 100 100 100 98 98 98 88 85 79 70 72 73 72 73 83 88 98 96 96 94 91 89 77 65 59 59 43 50 52 69 70 60 57 60
97 95 80 85 84 87 84 89 87 83 97 100 100 100 100 100 100 100 100 100 98 95 99 100 100 98 100 97 97 90 98 98 100 100 93 92 84 77 83 80 77 68 66 60 57 58 60 51 67 48 90 99 70 58
100 100 100 93 85 81 97 92 98 98 96 100 100 100 100 100 100 100 100 100 100 100 100 96 98 94 92 94 88 76 72 80 71 70 76 72 64 67 72 66 53 41 41 43 44 29 45 39 27 38 44 72 83 39
100 100 100 99 97 93 88 96 96 100 100 100 100 100 100 100 100 100 100 100 100 96 92 86 84 89 88 81 81 79 86 73 73 74 72 68 64 61 52 44 37 31 37 34 41 23 43 32 38 36 41 36 35 38
100 100 100 100 100 97 95 93 94 95 100 100 100 100 100 100 100 100 100 97 94 92 85 77 80 82 73 72 72 70 68 65 57 51 43 36 37 38 32 33 18 32 29 39 29 28 40 22 42 42 30 45 49 49
73 100 100 100 100 100 100 100 97 98 100 100 100 100 100 100 100 100 98 94 88 82 78 71 66 58 50 48 44 40 39 38 34 29 25 19 19 26 24 18 16 19 20 23 20 21 26 22 27 32 35 34 32 26
72 97 100 100 100 100 100 100 100 99 98 99 99 97 100 100 100 100 96 85 72 62 57 58 54 47 42 37 33 29 27 22 21 25 33 51 55 84 57 16 34 27 19 23 23 19 17 20 18 31 26 20 17 20
75 90 100 100 100 100 100 100 100 98 93 92 93 94 99 94 89 86 73 66 59 52 46 46 43 60 76 51 42 35 43 50 58 72 73 83 95 72 23 57 58 40 26 18 16 16 20 25 27 21 38 65 78 87
79 95 100 100 100 100 100 100 100 100 100 100 100 93 88 84 80 67 61 50 47 53 86 85 44 82 99 93 73 62 62 79 90 94 91 66 58 46 68 24 17 16 16 20 20 23 30 46 56 81 100 100 100 100
92 100 88 93 100 100 100 100 100 100 100 95 100 100 88 78 75 56 81 68 76 90 84 90 97 85 98 100 95 94 98 100 100 81 54 56 27 70 31 20 21 25 23 35 48 93 100 100 99 98 100 96 82 88
99 100 97 95 100 100 96 100 100 100 100 100 92 90 85 76 54 84 100 99 96 100 95 92 86 76 90 100 100 98 100 98 100 100 100 100 100 100 100 100 100 100 100 100 100 100 96 96 92 76 53 40 41 44
60 70 88 100 100 100 100 100 99 98 95 98 94 91 72 72 99 100 87 76 84 86 100 100 100 100 100 100 100 100 100 100 100 100 100 100 100 100 100 99 94 88 80 59 41 19 28 33 31 36 43 47 44 48
85 73 61 56 60 84 99 95 95 96 93 94 84 98 100 99 95 76 85 92 77 34 90 100 100 98 100 100 100 100 100 100 100 100 100 100 100 94 97 78 33 21 16 15 15 15 16 19 19 28 39 39 25 22
100 100 100 100 100 100 75 78 90 71 68 68 98 100 97 83 80 100 98 78 70 64 72 66 99 96 78 55 46 32 47 99 99 85 82 100 86 46 38 32 27 19 14 13 13 14 21 26 35 32 54 81 86 95
100 100 100 100 89 99 69 64 78 70 95 100 100 87 84 96 100 100 71 64 72 20 17 37 58 52 76 29 24 17 17 19 20 26 65 81 59 50 33 18 16 15 14 14 14 24 36 38 34 36 44 73 73 72
77 95 100 66 43 41 60 77 84 94 100 93 76 92 100 100 94 38 36 59 56 32 28 20 50 80 54 36 47 44 30 33 61 76 91 86 64 48 39 36 25 28 37 33 25 33 56 53 34 34 45 65 72 78
60 63 81 97 84 73 86 94 94 89 81 86 100 100 97 96 94 64 38 38 43 34 28 33 21 17 44 75 43 80 98 98 100 90 70 70 55 65 73 80 88 90 96 99 84 89 96 86 84 71 66 68 72 84
65 45 50 54 58 88 100 99 100 99 100 99 91 72 49 31 25 22 22 60 37 21 18 18 31 37 43 40 27 80 89 99 91 71 58 57 70 83 89 77 71 68 61 62 65 78 92 87 71 59 57 62 76 99
100 79 48 41 43 40 42 54 56 49 47 42 38 28 22 27 23 21 22 21 28 23 41 40 24 13 15 19 28 100 100 99 100 95 81 80 80 74 68 68 64 55 50 48 55 62 61 57 57 55 66 90 100 100
100 100 98 88 84 80 69 55 41 42 34 38 34 29 33 71 91 84 89 71 78 79 77 86 71 61 39 89 96 100 100 100 100 87 50 40 35 33 36 48 79 88 76 63 58 56 56 57 70 82 100 100 100 92
100 100 100 100 100 100 100 99 94 89 100 100 100 98 100 99 100 100 100 100 100 100 100 100 100 98 100 100 100 100 100 100 92 51 36 31 30 30 28 53 71 92 99 95 94 92 92 92 70 44 38 96 78 29
100 100 100 100 100 100 100 100 100 100 100 100 100 100 100 100 100 100 100 100 100 100 100 100 100 100 100 98 100 100 97 96 74 67 45 33 27 27 22 22 50 88 100 100 100 99 100 97 68 26 19 20 22 24
100 100 100 100 100 100 98 94 86 93 100 100 100 100 100 90 90 97 87 80 87 99 100 96 99 100 100 100 100 100 85 60 52 58 73 44 33 29 25 22 22 40 90 100 100 100 100 97 39 20 20 19 21 24
100 100 100 100 99 100 100 100 100 100 97 91 88 86 81 72 66 70 64 69 80 71 71 73 68 62 70 69 77 87 88 67 51 42 34 29 26 23 21 21 21 21 32 80 100 100 100 98 55 29 20 21 24 24
100 100 100 100 96 96 100 100 100 100 90 88 79 73 71 75 78 65 57 58 73 70 52 44 37 34 33 33 33 34 34 33 29 23 20 18 17 14 14 15 17 19 20 30 71 98 100 100 93 37 20 19 23 28
100 100 100 100 100 98 93 89 90 97 100 100 100 96 84 82 55 43 66 86 96 87 81 74 54 44 33 30 26 26 27 27 27 26 24 20 18 16 14 13 14 18 17 22 41 71 98 100 100 69 22 18 19 26
100 100 100 100 100 100 97 99 99 100 100 100 100 100 100 97 76 63 75 77 67 71 96 100 97 89 81 73 66 57 47 38 30 26 21 19 18 17 16 14 15 19 24 22 35 52 74 100 100 98 46 22 20 22
100 100 100 95 99 100 100 100 100 96 98 100 100 100 100 100 100 100 100 86 74 69 58 62 77 82 85 85 84 82 82 81 80 78 71 61 52 42 35 31 31 30 32 33 38 54 60 83 100 100 100 60 29 25
98 100 94 94 100 100 100 100 100 100 100 100 100 100 100 100 100 100 100 100 99 77 51 42 41 41 40 46 52 49 50 52 53 65 86 94 86 84 74 58 48 42 38 35 37 50 66 73 97 100 100 100 91 51
100 100 100 100 100 100 100 100 100 100 100 100 100 100 100 100 100 100 100 100 100 98 92 75 61 52 49 48 44 40 35 31 27 28 29 42 76 91 93 95 87 78 67 64 65 73 86 87 95 100 100 100 100 100
100 100 100 100 100 100 94 89 97 98 100 100 100 100 100 100 100 100 100 98 100 100 100 100 91 79 71 69 74 73 68 63 61 56 40 27 24 32 52 70 82 96 100 99 98 99 100 100 100 100 100 100 100 100
100 100 100 100 100 100 99 99 100 100 100 100 100 100 100 100 100 100 97 97 100 100 100 100 100 100 100 98 97 96 94 88 83 76 70 51 39 33 24 21 24 33 56 87 100 100 100 100 100 100 100 100 100 100
100 100 100 100 100 100 100 100 100 100 100 100 100 100 100 100 100 96 98 96 97 100 99 100 100 100 100 100 100 100 100 100 100 100 97 85 69 59 52 52 49 31 22 21 36 64 92 100 100 100 100 100 100 100

GFSWCAN_500_rhum_162.txt.gz
RH
13 14 16 20 19 16 15 16 17 16 15 19 34 36 52 74 84 94 91 94 90 80 69 69 69 67 54 70 67 65 59 83 92 100 100 100 100 98 100 99 100 100 98 87 99 100 73 52 84 94 90 74 68 62
24 20 18 18 21 19 18 18 18 15 9 12 13 14 14 14 15 15 15 15 19 22 19 19 18 25 19 17 22 22 32 43 55 78 82 89 92 100 97 100 100 96 90 100 100 93 93 86 78 81 76 67 60 56
57 43 32 26 26 22 22 21 19 18 17 15 11 12 19 20 14 17 27 28 22 26 27 22 19 31 33 34 54 72 68 84 96 100 100 100 100 100 100 100 100 100 100 95 92 78 86 78 72 65 63 62 65 66
67 74 79 71 54 45 50 42 35 26 19 18 25 42 37 64 67 56 47 48 55 81 68 54 58 60 78 82 86 90 96 100 99 99 99 98 95 93 92 98 96 91 96 92 90 81 73 69 67 67 66 63 60 52
38 59 85 85 81 74 74 78 80 73 67 66 48 55 66 70 74 69 74 81 88 88 88 100 100 82 86 87 76 78 87 90 95 95 83 87 89 85 76 69 55 61 59 63 56 65 62 53 62 63 60 57 52 44
64 48 67 99 94 89 78 74 79 77 83 83 87 82 74 69 66 64 70 78 73 71 73 84 86 82 78 72 71 68 70 71 71 67 65 65 70 80 64 54 46 46 40 38 37 32 32 31 30 32 33 35 36 34
38 44 42 95 98 98 87 82 81 81 99 100 99 94 78 67 65 64 60 53 49 51 63 66 64 62 58 58 62 64 66 70 68 66 62 49 40 34 34 33 28 27 22 20 18 16 14 14 14 15 17 22 30 28
52 72 87 95 100 99 88 89 90 86 91 95 100 99 90 81 74 66 58 55 59 62 57 57 57 58 64 71 72 68 60 52 45 38 32 28 22 22 13 14 13 18 23 18 15 14 16 16 19 23 31 27 21 17
92 98 100 100 100 100 94 100 100 97 92 94 98 93 92 80 75 71 64 62 60 58 56 54 51 49 49 46 44 44 42 38 36 41 37 29 48 29 25 23 31 30 17 17 14 14 16 17 16 19 22 25 18 18
100 100 100 100 100 99 96 100 100 100 93 87 90 81 75 74 66 60 60 56 53 50 43 38 40 35 36 40 56 63 53 42 62 48 50 51 29 46 58 91 84 48 18 16 16 90 100 96 48 24 22 20 19 19
100 100 100 100 100 100 100 100 100 82 92 77 85 76 82 74 63 56 52 52 47 44 41 42 47 45 51 77 70 68 78 78 88 82 75 97 84 94 92 95 97 87 68 22 70 100 100 100 100 100 62 53 35 91
100 100 100 96 100 100 100 100 98 96 81 70 80 78 77 69 62 55 54 58 62 73 79 84 83 75 88 90 97 94 94 95 99 87 98 97 99 100 100 100 100 97 100 88 77 97 100 100 100 100 100 98 95 100
91 95 89 84 92 98 97 87 91 100 100 85 76 87 74 69 57 57 67 91 90 90 96 100 100 100 100 96 98 100 100 99 95 97 100 100 100 100 99 98 74 36 25 36 88 94 100 67 73 97 83 63 42 31
58 66 88 95 78 94 100 100 100 100 100 100 99 78 81 68 66 79 89 89 97 97 88 100 100 100 100 100 100 100 98 97 100 100 100 100 100 100 100 78 84 83 34 23 18 15 14 15 17 15 13 13 14 16
91 90 83 83 100 100 93 92 98 100 100 100 98 87 75 72 90 91 92 98 98 100 100 100 100 100 100 100 94 95 84 78 94 100 100 100 91 95 94 80 55 49 40 32 26 21 18 16 15 14 15 18 22 37
76 53 77 100 100 100 100 100 98 93 86 82 80 76 92 95 96 96 100 100 98 62 44 79 100 100 100 100 99 100 93 95 100 100 95 90 79 70 77 72 56 49 44 37 31 25 21 22 22 22 27 32 35 41
71 48 66 84 96 83 75 82 87 90 89 94 100 100 100 100 94 88 100 100 89 56 42 94 100 100 79 100 100 93 93 96 92 74 74 75 65 48 59 58 55 57 54 53 57 63 56 47 47 70 75 71 57 47
83 64 60 58 57 62 82 76 73 78 88 100 100 100 100 100 95 100 83 62 66 83 83 42 32 38 80 100 100 100 100 65 36 56 47 68 63 77 59 64 63 65 68 66 69 70 64 65 72 84 94 100 98 87
52 72 71 74 81 90 92 87 93 99 100 100 100 100 100 100 100 90 76 57 67 89 91 70 40 31 26 35 42 39 65 61 50 39 57 82 74 87 90 78 76 73 66 61 61 60 58 56 57 68 83 91 90 73
74 58 76 84 89 100 98 99 100 100 100 100 100 100 100 78 67 73 39 19 23 47 41 36 19 15 18 25 26 20 18 23 21 50 56 68 79 99 56 49 51 53 57 50 63 82 83 68 57 58 58 57 55 58
99 74 51 46 46 51 70 83 93 90 100 100 88 60 41 31 26 24 31 39 26 28 18 18 21 27 52 64 53 59 43 45 86 96 90 92 90 95 50 39 33 26 34 65 88 95 92 90 89 87 86 83 81 74
100 100 100 90 92 74 66 64 60 66 48 54 56 49 42 44 39 30 30 53 89 78 72 82 98 94 96 89 76 80 80 88 100 100 100 98 100 94 51 37 29 25 22 23 25 64 92 95 94 93 92 93 91 69
96 100 100 100 100 94 94 95 96 100 92 90 85 98 84 84 91 97 86 85 96 100 100 96 95 100 100 100 100 100 89 96 97 100 99 98 100 98 95 60 43 34 26 21 18 18 21 48 87 98 98 99 100 78
100 100 100 100 98 98 100 100 100 100 99 100 100 100 100 100 100 100 100 100 99 100 100 100 100 91 75 77 89 95 99 100 100 100 100 97 98 74 66 72 64 32 24 18 16 16 16 16 17 31 81 100 100 91
100 100 100 100 100 100 96 84 85 88 92 100 100 95 93 90 90 85 83 92 94 87 74 66 59 50 42 40 41 41 45 54 73 82 88 87 97 95 82 59 39 29 23 18 15 16 16 15 15 14 16 34 86 100
100 100 99 96 98 99 100 100 100 100 100 100 100 100 100 100 94 78 71 76 74 71 68 66 62 60 53 46 44 41 36 32 30 32 43 46 52 48 45 52 41 31 27 24 24 24 24 23 20 18 15 14 19 52
100 97 97 100 100 99 97 95 97 100 100 99 97 97 97 95 90 84 76 74 75 74 74 73 73 66 57 57 69 80 80 64 52 45 34 30 29 27 26 28 29 30 31 31 30 30 28 28 26 22 19 15 14 19
100 100 100 95 93 99 100 100 100 100 100 100 100 100 100 94 83 79 84 92 97 96 94 99 100 99 98 98 91 79 80 96 95 95 93 83 75 66 56 51 46 36 31 26 22 19 18 17 15 14 14 14 16 23
100 100 100 100 100 100 100 100 97 95 94 96 94 93 84 76 75 84 97 100 100 100 100 100 100 100 100 99 98 98 96 84 69 72 83 86 84 83 78 75 72 70 69 70 72 76 72 64 57 48 39 33 31 34
69 94 99 100 100 100 100 97 89 87 87 89 91 78 87 100 100 100 100 100 100 100 99 100 100 100 100 100 100 100 100 98 77 55 45 39 33 32 31 38 45 41 38 41 44 63 90 95 91 85 79 67 62 62
20 34 93 95 96 100 100 100 100 100 100 100 100 100 100 100 100 100 100 100 100 100 100 100 100 100 100 100 99 100 99 96 94 93 78 59 50 49 50 50 47 42 36 32 29 28 37 77 93 98 100 100 100 100
13 18 52 98 99 100 98 100 100 100 100 100 100 100 100 100 100 100 100 100 100 100 100 100 100 100 100 100 100 100 100 99 98 100 100 94 83 74 74 75 74 73 70 68 66 38 25 27 43 71 82 96 100 100
12 13 18 57 100 100 100 99 100 100 100 100 100 100 100 97 94 96 99 100 100 100 100 100 100 100 100 100 99 98 100 96 90 90 93 96 95 94 96 99 100 100 96 88 77 72 53 39 30 24 28 39 52 83

GFSWCAN_500_rhum_168.txt.gz
RH
24 20 15 20 49 98 100 100 100 100 100 100 100 100 96 87 95 100 100 100 100 100 100 83 84 85 87 93 81 78 100 92 100 100 100 100 99 94 97 77 74 81 92 100 100 100 99 100 100 100 84 72 66 42
16 24 20 15 15 25 66 98 100 100 100 100 100 90 100 100 94 82 64 71 84 100 100 100 100 100 100 100 100 100 100 100 100 100 100 100 80 75 79 92 99 100 100 100 100 100 100 98 95 96 87 56 44 41
32 18 20 24 19 15 15 31 49 64 97 100 100 100 100 100 100 100 100 100 80 99 100 100 100 100 100 100 97 100 100 100 100 100 100 100 100 100 100 100 100 100 100 96 91 82 80 65 56 45 56 63 64 54
36 40 28 17 22 23 20 16 15 15 17 29 64 97 99 99 100 100 100 100 100 100 100 100 100 100 100 100 100 100 100 100 100 100 100 100 98 100 98 97 92 84 74 61 50 48 49 48 54 71 73 56 50 58
30 33 51 37 25 20 18 20 22 19 16 13 12 17 70 81 86 98 98 99 100 100 100 100 100 100 99 100 100 98 96 91 88 89 86 86 87 85 76 68 60 56 54 80 74 70 53 37 37 40 50 69 87 78
48 37 31 58 49 40 32 23 20 22 24 23 17 14 12 11 18 28 62 62 79 88 80 81 91 94 92 88 87 82 79 70 55 59 70 85 76 70 53 31 32 58 99 86 39 36 28 34 45 62 64 61 61 56
57 56 42 42 72 64 58 52 51 54 42 35 31 21 18 12 11 11 14 16 15 16 23 30 36 35 36 53 50 40 40 37 33 31 35 40 41 34 27 22 56 78 49 40 53 57 52 53 50 47 45 44 40 34
60 70 67 49 72 88 79 66 60 58 60 63 56 44 46 48 47 40 32 35 30 27 25 24 27 28 33 42 40 44 51 46 48 53 54 52 54 49 38 64 48 47 55 51 49 44 40 37 34 28 25 20 14 11
31 42 71 69 59 98 92 70 63 60 62 77 84 88 82 78 80 82 78 70 66 68 55 54 60 58 54 53 50 54 50 53 55 50 49 47 48 48 50 45 48 43 38 34 27 18 15 10 10 10 13 14 11 11
86 86 77 65 57 96 87 70 72 70 85 100 100 100 100 100 98 85 84 76 75 70 70 62 63 60 56 56 56 56 54 53 52 54 52 52 50 43 31 25 19 15 11 10 24 21 12 12 12 16 34 26 17 13
100 100 100 95 79 95 94 88 83 84 90 100 100 100 100 100 92 86 76 68 62 59 60 64 62 60 57 60 59 58 62 60 51 41 34 29 24 21 16 14 17 39 37 46 18 26 44 57 73 69 35 22 46 88
92 87 95 100 90 100 100 96 97 90 92 99 100 97 94 91 80 77 72 72 72 70 66 65 64 62 60 57 54 51 45 41 34 28 25 20 22 36 48 50 60 62 60 22 37 58 69 69 63 74 95 94 86 67
79 99 97 100 98 100 100 97 99 91 92 94 100 95 80 73 63 56 54 56 55 54 53 52 48 46 44 41 41 46 40 36 30 29 37 42 66 70 84 98 67 70 72 38 41 64 78 80 79 73 57 37 30 36
76 87 97 100 81 97 94 100 100 93 89 86 83 80 72 59 55 55 56 62 76 70 58 57 58 53 48 49 59 49 62 58 45 52 74 85 78 80 100 96 60 48 32 43 60 60 44 16 15 16 15 15 17 18
54 73 88 97 100 94 100 100 89 80 69 85 64 68 67 63 60 61 74 88 94 100 95 97 93 83 94 93 86 80 80 80 79 98 86 88 85 88 85 89 84 85 79 45 34 33 30 26 22 19 18 19 20 22
56 50 58 78 85 99 100 94 87 69 89 76 60 58 68 63 70 79 98 98 92 93 97 92 96 99 99 95 100 100 98 100 100 100 94 79 87 80 76 82 92 75 56 62 67 41 33 25 19 19 20 18 21 25
54 55 70 100 100 100 99 82 100 95 85 59 57 66 59 64 70 98 99 95 100 100 100 99 99 100 100 100 100 100 100 100 100 100 100 88 68 52 48 38 35 40 45 45 39 34 23 18 17 21 32 35 37 48
60 60 76 95 97 100 100 98 98 97 87 96 91 82 72 69 70 97 100 99 100 100 97 97 100 100 100 100 100 100 100 100 100 98 75 62 62 50 47 54 48 41 33 33 38 38 37 34 41 47 54 57 65 71
78 60 59 81 80 80 82 72 73 74 73 72 78 72 68 81 95 97 100 100 100 100 100 100 100 100 100 100 99 100 98 93 67 42 46 41 45 50 48 40 40 40 49 55 51 49 47 51 53 50 49 50 54 60
61 76 75 74 68 73 82 85 84 92 90 99 94 100 95 100 100 100 99 100 100 100 98 100 98 100 100 100 100 100 100 92 76 52 40 34 25 28 34 47 51 47 38 37 38 42 45 48 43 43 53 57 53 50
63 56 79 87 89 84 82 78 78 83 86 94 99 100 100 100 100 100 100 100 99 80 90 86 85 68 66 82 65 52 42 28 30 25 16 16 10 10 14 30 40 50 35 30 24 25 28 67 85 89 90 89 87 86
87 73 62 76 93 94 89 79 72 75 81 95 95 94 94 98 100 100 100 97 91 59 34 57 69 85 86 63 28 29 25 20 20 20 13 14 15 14 17 29 51 61 52 33 25 23 21 18 20 40 72 89 94 98
94 93 79 77 56 55 75 85 87 92 94 98 99 96 100 98 68 70 51 50 40 46 56 69 64 40 32 24 20 18 38 43 42 35 30 25 30 49 69 81 93 98 78 47 37 30 24 18 16 16 17 16 21 52
93 93 100 92 82 83 66 56 63 74 75 75 85 99 96 87 70 60 60 62 48 45 38 32 33 46 51 55 72 78 75 71 65 55 47 47 70 75 68 74 96 97 99 99 85 77 82 48 21 16 16 17 17 17
100 94 88 96 100 100 100 100 100 99 92 89 79 67 71 73 72 70 81 89 76 66 67 73 72 68 70 72 75 92 100 99 92 91 90 94 92 100 100 97 100 100 100 100 94 89 85 49 29 23 19 19 20 22
32 67 96 85 78 91 99 100 100 100 100 100 100 100 100 100 96 71 75 100 100 100 100 98 94 96 91 93 96 90 87 82 70 71 56 38 36 38 42 52 73 83 88 86 79 86 91 79 50 36 31 28 28 28
13 23 31 43 90 99 91 91 100 100 100 100 99 100 100 98 88 80 85 96 100 100 100 99 96 92 86 79 71 65 61 57 53 49 45 42 39 33 30 27 26 25 25 33 44 55 59 56 55 56 57 56 50 41
8 15 22 37 54 70 99 100 100 100 100 100 100 94 95 86 79 76 75 74 75 78 81 83 84 83 81 77 72 67 65 63 61 61 59 59 62 59 55 48 44 39 29 25 26 24 24 26 30 32 29 25 24 23
12 8 14 21 30 54 75 92 100 100 100 100 100 100 100 100 100 93 86 85 83 83 81 79 75 76 77 76 76 88 97 95 95 94 93 91 90 89 83 79 76 71 69 67 63 59 54 50 44 41 38 35 33 35
34 13 7 13 21 21 30 55 93 100 100 100 100 100 98 98 100 100 100 99 81 73 74 87 97 88 71 84 100 100 100 100 100 95 94 94 93 88 82 76 73 70 66 60 50 40 38 49 60 64 65 64 61 57
56 38 14 7 14 22 20 17 51 100 100 100 100 100 100 100 87 94 100 100 96 87 84 81 74 62 87 96 100 100 100 100 100 96 87 85 89 86 80 75 72 71 71 74 77 75 52 36 34 34 32 31 33 33
64 52 31 10 7 13 24 24 15 17 56 100 100 100 100 100 93 87 87 85 81 82 82 80 82 99 100 100 100 100 100 100 100 94 95 88 85 90 89 88 82 77 76 77 80 80 78 66 51 50 56 57 56 55
71 63 49 23 9 7 11 26 25 16 14 26 73 100 99 100 100 99 100 100 100 100 100 100 100 100 100 100 100 100 100 100 100 100 100 96 80 86 89 82 76 75 74 76 80 86 85 84 84 84 85 86 82 79

GFSWCAN_500_rhum_171.txt.gz
RH
25 22 24 58 99 100 100 100 100 100 100 100 100 87 86 96 100 100 98 100 99 100 92 91 83 70 56 58 71 65 72 87 69 98 96 89 100 95 83 72 64 60 67 94 100 95 100 100 95 92 95 68 58 92
24 25 20 22 38 94 100 100 100 100 100 100 98 49 76 93 70 82 100 100 93 55 58 61 69 100 97 100 99 100 100 94 73 98 100 100 98 89 52 50 65 86 87 100 100 99 98 83 62 68 83 90 100 100
24 21 25 24 19 25 82 100 100 100 100 100 100 98 82 70 90 100 74 95 100 100 92 82 86 96 55 83 94 96 100 100 91 97 99 54 57 81 72 66 100 100 92 97 87 66 61 69 98 100 100 100 100 98
32 29 20 24 24 20 20 43 88 99 100 100 100 100 100 100 96 92 100 100 100 100 100 100 100 100 100 100 94 80 66 94 100 61 73 96 100 99 100 100 100 93 86 86 89 82 85 100 99 97 95 83 68 53
24 29 37 21 19 23 22 21 21 36 68 99 100 100 100 100 99 100 100 79 87 100 100 100 99 98 94 97 89 91 93 97 100 100 99 100 100 98 92 94 93 90 97 100 100 100 96 87 82 70 63 49 44 41
40 30 30 43 27 20 20 21 21 19 18 28 59 97 100 100 100 100 100 100 100 100 100 95 100 100 97 84 95 98 100 100 100 100 100 100 95 91 95 92 87 92 98 93 84 75 72 69 56 59 58 54 64 53
47 44 36 32 47 37 27 19 17 21 21 19 18 15 44 89 99 100 100 100 100 100 100 100 100 100 100 100 100 100 100 100 100 100 100 100 99 97 92 82 74 72 60 53 44 39 43 54 52 52 48 53 50 50
55 53 51 38 40 54 42 36 34 28 20 19 21 16 12 12 19 53 85 98 100 99 100 100 100 100 100 100 99 95 90 90 89 92 94 90 86 76 69 64 62 56 40 46 44 34 30 30 33 40 43 42 41 39
35 76 77 57 38 51 58 47 44 48 55 47 30 24 20 15 16 21 21 31 66 72 82 85 86 94 90 74 66 64 57 53 52 49 49 40 34 29 27 28 28 26 25 30 37 38 36 35 36 32 26 20 14 10
87 55 76 78 54 58 68 58 51 47 50 64 71 60 40 32 22 19 28 24 23 24 38 40 40 51 53 58 53 53 54 54 47 46 44 40 40 38 31 33 35 33 33 34 36 32 23 12 10 10 12 12 13 15
95 98 84 81 78 87 79 68 61 60 64 70 75 78 81 77 74 69 72 68 65 61 52 64 57 58 58 73 68 63 67 64 57 50 44 42 43 36 38 38 36 33 27 20 13 19 24 21 28 34 44 34 16 17
96 100 100 100 97 99 95 90 90 96 100 100 99 96 91 85 77 81 79 77 69 68 70 69 73 75 81 73 71 65 56 52 45 46 44 41 42 39 32 25 18 16 14 23 35 25 41 54 53 60 67 48 65 92
96 94 94 82 99 100 100 95 88 100 100 100 99 94 93 87 88 86 81 76 68 64 61 58 62 61 58 61 58 59 55 53 49 50 43 34 27 23 20 17 24 36 46 55 35 46 64 71 76 78 87 84 83 56
86 99 90 98 100 100 94 90 88 94 92 96 88 80 70 64 61 58 59 60 60 60 58 55 56 56 57 56 52 51 46 42 36 30 30 24 24 45 61 68 84 64 48 63 53 37 52 63 38 20 22 16 15 14
51 77 100 67 67 93 93 79 83 91 92 82 83 75 60 52 45 47 50 52 54 51 49 43 41 40 38 35 35 35 40 32 32 35 36 50 70 88 90 94 91 49 48 45 39 49 44 24 20 19 18 17 16 15
54 48 55 81 99 62 78 77 70 76 76 71 72 74 60 57 58 62 73 85 81 74 70 62 60 53 68 68 69 79 71 70 74 77 74 84 82 80 95 100 100 85 70 67 72 51 41 34 31 26 19 19 19 17
57 34 41 66 100 99 97 100 92 80 59 60 73 64 58 62 73 80 99 98 93 97 91 92 96 100 100 100 100 100 94 100 100 99 94 99 99 95 85 76 74 91 89 76 61 61 62 56 36 26 26 15 14 20
63 35 49 79 97 100 100 95 85 72 62 68 62 52 50 53 65 81 98 100 100 100 100 100 100 100 98 100 96 100 100 100 100 100 100 96 82 65 52 45 43 38 36 36 38 39 43 45 41 39 38 46 52 56
74 56 51 59 67 82 97 100 94 99 99 94 68 63 67 66 65 81 100 100 100 100 100 100 100 98 99 100 100 98 100 100 100 100 94 80 76 65 56 46 41 37 37 35 36 41 41 42 41 40 47 50 51 50
57 67 73 63 51 59 74 78 71 67 64 63 62 68 71 67 81 95 100 100 96 100 100 100 100 100 100 100 100 100 100 100 100 76 58 41 32 28 25 31 30 33 40 39 33 31 32 39 48 49 50 45 41 46
74 70 62 74 80 77 73 72 70 71 74 79 83 94 100 100 100 100 100 100 100 100 100 98 100 100 100 100 100 100 100 100 100 89 62 45 37 27 10 10 12 14 18 33 38 23 22 24 56 90 93 89 87 83
81 85 88 65 80 86 82 84 83 79 75 83 88 95 100 100 100 100 100 100 100 100 97 92 100 100 99 100 100 99 91 87 78 42 37 37 30 30 31 29 21 13 12 18 42 34 22 23 20 20 30 44 53 67
60 81 86 93 79 68 87 86 79 75 77 89 97 96 96 95 93 100 100 100 94 100 99 62 53 77 86 90 95 87 69 48 43 38 31 29 27 23 18 13 12 18 23 29 49 56 34 28 25 20 18 17 17 16
14 34 68 79 84 90 86 61 56 80 94 96 92 91 91 95 97 98 82 66 67 71 65 67 69 63 66 61 50 44 36 30 32 29 32 40 46 44 39 32 36 48 66 75 86 91 63 47 40 35 27 17 17 18
6 10 17 39 66 76 86 98 100 81 66 79 94 87 82 87 88 93 86 67 60 59 52 49 49 49 42 36 38 40 46 52 53 66 71 63 59 57 60 64 62 76 84 87 97 100 100 96 95 99 68 33 21 18
27 13 8 13 23 52 77 91 100 100 100 100 99 87 77 74 71 61 80 93 83 78 82 83 75 70 71 65 63 65 67 70 68 73 83 87 85 82 78 64 49 44 51 69 91 98 100 100 98 95 91 66 36 30
50 41 20 10 10 17 25 48 77 93 100 100 100 100 100 100 85 67 70 90 100 100 96 91 87 83 78 72 64 62 62 58 52 64 68 66 65 64 58 50 46 39 33 30 29 30 31 36 52 77 89 79 67 70
61 57 48 33 12 9 15 23 29 53 89 92 95 96 100 99 93 91 100 100 100 100 99 96 96 96 91 87 84 83 80 74 70 67 65 62 59 56 52 48 47 45 41 40 37 33 31 28 25 23 21 20 23 36
66 63 61 56 42 16 9 12 20 26 38 57 90 100 100 100 100 95 94 96 99 100 100 98 96 94 91 89 86 82 79 75 70 64 63 67 78 86 88 84 82 79 75 70 62 58 53 48 44 43 44 41 36 29
75 70 67 66 63 48 22 8 11 20 24 38 68 90 100 100 100 100 100 98 92 89 93 99 100 97 96 92 87 82 83 83 80 78 85 96 99 100 94 87 85 82 79 76 72 70 67 60 53 48 49 49 47 50
74 73 74 70 69 66 55 26 10 11 21 23 24 38 86 97 100 100 100 100 100 100 98 93 90 91 90 86 87 96 100 96 95 98 99 99 100 100 99 86 78 74 72 68 68 68 67 66 66 68 71 70 52 34
68 72 80 77 74 70 70 57 25 10 10 22 24 20 24 45 80 94 100 100 100 100 100 96 95 86 82 86 87 89 89 96 100 100 100 100 100 100 95 86 74 69 68 69 66 65 65 66 70 74 77 78 70 49
66 70 80 84 83 78 77 74 54 26 12 12 24 27 21 16 53 98 96 100 100 100 100 93 82 79 81 86 96 95 100 100 100 100 100 100 100 100 99 86 78 81 72 66 69 69 64 64 66 72 78 82 83 80

GFSWCAN_500_rhum_177.txt.gz
RH
23 24 29 92 100 86 61 72 92 97 100 100 99 100 100 100 98 100 100 100 100 99 100 100 99 98 100 100 100 100 100 92 90 86 99 99 98 94 100 87 88 86 75 73 85 98 87 96 86 51 74 85 88 92
15 21 21 22 95 100 76 52 75 93 95 84 100 100 100 100 100 100 100 100 100 100 100 99 88 85 94 100 100 98 100 94 97 100 100 98 100 97 88 90 79 85 79 89 89 81 77 64 64 76 90 87 65 53
22 16 20 18 27 96 100 62 65 88 100 100 100 100 100 100 100 100 100 93 96 100 100 94 86 52 50 67 78 80 92 84 100 100 100 100 100 100 100 97 100 93 99 100 100 81 79 81 84 89 73 58 50 57
21 24 18 15 18 31 98 100 73 78 100 99 100 100 100 100 100 98 96 85 100 100 100 100 95 100 83 66 55 65 56 53 78 94 100 100 100 89 96 99 100 100 98 81 72 69 72 78 71 64 60 73 66 55
22 21 28 20 16 18 37 100 100 89 99 95 100 100 100 100 96 66 65 97 99 100 100 100 99 100 100 93 100 100 93 99 84 93 91 99 66 88 100 99 100 85 63 56 77 80 71 74 67 67 62 61 73 97
33 25 26 34 21 17 18 49 100 100 100 100 100 100 100 100 80 74 65 80 100 100 100 100 100 98 100 100 100 90 84 84 99 100 86 100 100 98 99 100 99 76 78 84 68 57 61 60 100 85 83 88 69 56
38 40 30 32 36 22 17 19 85 100 100 100 100 100 100 84 100 79 94 94 100 100 100 100 98 99 100 100 98 98 88 85 91 92 91 89 82 73 60 58 76 91 96 84 69 69 56 50 63 72 60 47 43 56
34 45 44 32 38 38 26 16 19 84 100 100 100 100 100 100 100 100 83 94 100 100 100 100 100 100 100 94 100 80 79 84 74 77 73 70 72 100 100 99 76 71 83 80 78 73 80 89 71 60 59 62 70 74
53 48 50 43 37 44 38 27 17 17 64 100 100 100 100 100 100 100 85 90 100 100 99 99 100 99 100 76 75 79 64 64 78 88 85 83 75 75 73 97 89 77 78 71 78 87 98 96 80 81 86 87 83 87
34 56 59 49 37 38 47 35 28 21 15 34 97 100 100 100 100 100 100 100 100 100 100 100 79 71 69 78 88 90 90 96 100 100 98 100 100 96 87 82 84 77 66 72 79 83 87 91 90 84 86 96 96 60
38 38 67 55 43 36 42 43 30 28 29 19 18 51 98 100 100 100 100 98 95 96 92 99 100 100 100 100 100 100 94 99 100 100 100 100 100 100 95 91 94 96 100 100 95 84 75 88 99 99 71 29 20 17
54 59 70 64 49 48 49 46 38 32 36 39 32 24 24 64 97 100 100 100 100 100 100 100 100 100 100 100 100 100 100 100 100 100 100 100 95 100 100 100 100 100 100 99 93 91 87 56 32 24 21 19 19 17
39 41 45 55 47 53 56 52 46 48 47 50 56 55 42 36 32 53 81 97 99 100 100 100 100 100 100 100 100 100 100 100 100 100 100 97 100 100 100 100 100 99 91 71 52 40 30 22 22 22 20 16 12 15
46 48 41 37 45 51 58 59 61 63 67 68 65 58 45 54 39 40 33 37 36 55 78 93 99 100 100 100 100 100 100 100 100 100 100 100 99 96 95 94 84 58 44 34 29 27 27 26 21 16 14 21 27 41
44 43 48 43 49 54 63 60 63 67 72 73 73 65 59 60 54 53 51 46 45 48 45 46 48 56 69 80 76 78 87 85 85 80 67 61 54 47 41 35 32 32 32 32 31 27 21 16 15 21 27 36 52 63
48 35 24 23 51 56 73 67 67 69 70 68 64 58 51 48 52 65 68 67 66 68 62 59 61 59 56 55 54 53 47 43 45 46 42 38 39 40 38 35 33 33 30 23 18 17 21 36 44 42 54 50 52 19
44 28 17 19 60 72 74 70 62 65 61 56 58 56 56 83 70 40 62 71 69 83 95 80 67 60 60 58 53 50 48 56 63 50 43 41 39 37 36 32 26 21 19 26 44 62 63 48 41 43 45 46 30 24
42 36 31 30 64 67 66 66 72 68 65 53 42 53 55 52 47 46 62 86 87 97 100 100 83 79 72 55 76 88 75 45 44 38 34 32 29 25 23 23 33 51 64 73 83 71 67 80 71 65 61 61 62 55
32 43 37 36 38 53 60 52 49 62 61 48 39 39 52 52 50 46 46 56 72 100 100 78 95 98 94 92 85 95 75 43 36 32 39 30 25 25 39 69 86 94 94 89 90 92 90 78 70 63 51 38 31 24
10 29 43 40 44 42 38 45 52 55 54 54 60 64 60 49 44 45 42 43 61 75 88 83 76 75 79 93 89 90 89 81 100 100 89 98 95 97 100 98 81 76 57 47 37 31 27 23 20 20 20 23 23 22
9 8 22 40 45 45 45 49 47 50 60 60 55 52 56 51 43 41 38 38 52 64 76 89 82 79 84 99 99 90 100 100 100 93 100 100 100 100 98 88 71 53 50 42 28 27 23 19 25 23 19 18 19 34
24 14 7 10 31 48 48 50 52 59 59 56 54 53 87 80 50 54 73 76 59 70 74 99 95 93 82 83 100 100 100 100 92 98 100 100 100 94 70 65 62 39 32 24 16 16 19 20 14 10 14 24 22 18
37 30 22 10 7 18 40 61 58 58 51 58 58 70 89 84 85 95 77 90 99 75 78 95 96 91 83 98 80 88 89 100 100 100 100 100 99 82 44 33 24 17 21 36 43 45 41 34 24 19 16 13 16 26
42 40 33 28 20 9 13 35 59 59 65 60 56 68 87 92 100 84 85 92 83 79 84 84 83 89 89 86 90 73 74 83 98 100 98 100 100 92 78 74 73 60 54 52 48 39 27 21 13 10 10 10 12 13
42 45 41 41 35 31 20 10 15 44 64 64 65 67 75 84 83 81 83 76 89 95 91 91 86 91 94 90 96 100 99 99 94 96 95 85 71 67 60 52 48 48 41 25 21 20 20 25 25 22 24 30 40 48
41 38 43 47 48 48 43 36 23 13 16 43 65 72 66 72 75 76 88 84 95 93 97 94 93 91 90 93 100 88 90 97 98 100 100 99 90 83 63 37 30 25 25 24 22 20 23 34 42 51 58 60 77 90
43 33 30 41 50 57 59 55 51 45 29 15 15 38 66 74 76 79 58 76 90 92 99 100 96 90 95 99 100 97 100 100 99 87 81 69 58 50 40 34 34 38 36 36 37 42 51 60 68 69 57 48 48 43
55 42 32 29 34 47 61 68 68 62 56 52 40 18 13 22 61 71 73 74 88 97 89 92 100 100 100 99 99 97 94 87 79 82 73 64 61 59 62 69 65 64 66 64 55 52 52 50 50 50 50 48 44 41
84 56 45 32 27 30 44 60 73 77 73 68 62 52 36 16 13 20 51 76 77 88 100 96 92 94 95 92 96 98 99 100 100 100 98 87 86 91 90 79 66 58 53 49 47 46 46 45 44 44 45 43 37 33
100 77 46 41 32 25 26 32 54 74 83 84 78 70 61 45 30 13 11 19 45 76 90 91 96 100 100 99 96 94 91 89 89 90 91 90 91 92 89 82 77 73 66 59 53 50 47 46 52 60 64 64 63 61
100 97 48 37 33 26 25 25 30 46 67 85 85 83 76 66 54 33 13 11 14 27 65 100 100 100 100 100 100 100 100 100 100 100 100 100 100 100 97 91 84 76 69 63 58 57 65 75 72 64 60 60 61 60
100 99 55 33 28 26 23 20 24 32 45 64 80 84 84 75 66 52 33 20 9 12 21 50 100 100 100 100 100 100 100 100 100 100 100 100 100 100 99 96 95 88 78 74 72 82 92 89 81 74 63 57 54 55
100 95 64 37 21 18 17 15 15 25 45 57 68 77 81 82 75 63 53 36 16 10 17 23 56 100 100 100 100 100 100 100 100 100 100 100 100 100 100 100 100 97 96 96 96 100 100 96 96 85 68 56 51 48

GFSWCAN_500_rhum_183.txt.gz
RH
16 18 22 24 22 21 74 52 51 64 34 67 92 100 100 69 56 87 77 64 52 54 89 82 62 78 100 100 100 100 100 100 100 100 100 94 98 98 89 96 97 97 92 98 99 97 66 89 100 95 87 100 98 97
13 15 14 14 17 18 24 72 48 48 60 37 71 100 100 100 100 97 92 91 69 53 58 97 82 78 100 100 98 82 98 99 99 100 91 89 84 87 82 91 94 88 77 99 99 97 98 100 99 98 97 96 98 98
18 13 14 14 13 14 17 67 51 46 41 79 71 71 100 100 100 100 100 100 99 70 48 72 90 78 91 100 91 100 100 100 88 100 92 100 97 92 85 82 86 96 100 95 87 96 97 99 98 96 95 96 96 97
37 23 14 14 15 12 14 31 60 52 39 44 77 83 100 100 100 99 100 100 98 81 47 45 82 100 100 100 96 98 100 100 100 99 97 97 88 95 95 72 67 83 96 88 91 74 97 97 97 92 98 98 96 92
58 33 23 15 19 16 14 20 66 77 60 49 60 100 100 100 100 100 100 100 94 93 52 67 80 100 100 100 98 64 65 77 69 51 95 77 92 95 94 84 88 69 70 90 88 91 98 97 98 99 99 96 96 91
55 45 30 22 20 23 16 23 79 99 93 69 58 54 38 65 69 85 97 88 69 94 81 91 81 85 100 100 92 100 100 100 99 100 100 100 97 100 99 92 88 93 99 100 94 99 98 99 99 97 100 94 79 50
51 43 34 27 20 25 22 19 98 91 100 91 97 76 82 87 84 82 80 100 100 100 92 98 100 98 81 100 100 100 100 100 100 100 100 100 100 100 100 100 98 82 99 100 96 98 97 94 96 98 96 96 70 66
40 50 37 31 27 18 26 21 79 100 98 100 100 100 87 90 97 99 100 100 100 100 99 100 92 100 99 100 100 98 100 100 100 100 100 100 100 100 100 100 100 100 100 100 92 93 89 86 79 73 67 66 66 66
20 44 50 39 32 24 19 26 25 100 100 96 100 100 100 100 100 98 100 100 100 100 99 99 100 100 89 68 91 100 96 100 90 98 93 99 100 100 98 96 91 96 99 100 99 95 92 94 86 70 68 94 90 74
18 27 46 50 42 32 25 21 26 75 100 100 100 100 100 100 97 100 100 100 100 100 100 100 100 100 100 80 48 60 100 99 100 100 89 92 100 98 98 94 100 99 99 76 69 62 79 70 64 72 68 71 80 82
20 26 35 46 47 38 27 22 26 24 88 100 100 100 100 100 100 98 100 100 98 97 100 97 99 100 100 100 100 100 100 100 96 97 95 100 98 99 100 100 100 86 72 73 84 74 83 73 65 62 62 80 93 92
23 22 26 34 41 42 35 32 30 29 24 85 100 100 100 100 100 100 99 100 100 100 97 97 97 100 100 100 100 100 100 100 100 89 93 100 97 84 80 79 72 74 67 51 45 41 39 37 40 46 49 56 78 95
16 24 25 24 28 33 36 42 43 38 30 60 53 80 98 100 100 100 100 100 100 100 100 100 100 100 100 100 100 100 100 100 100 96 92 78 70 60 63 64 60 52 42 35 38 44 50 58 76 82 89 96 91 99
5 10 19 26 29 27 28 34 45 42 100 47 43 33 44 61 83 94 99 98 100 100 100 100 87 89 98 85 79 91 91 83 85 83 69 72 78 86 72 56 47 48 68 73 72 75 76 76 78 87 93 93 92 88
8 5 6 7 6 18 29 31 46 47 46 51 51 48 35 34 31 45 64 79 96 100 100 100 90 87 86 78 62 66 76 78 76 71 61 66 72 61 79 80 77 88 83 72 66 65 69 80 88 91 87 90 92 92
16 8 5 5 6 10 24 30 41 46 53 54 46 49 48 46 36 33 29 30 39 59 80 90 94 100 100 100 100 88 83 76 70 76 90 96 88 89 91 89 78 74 69 68 73 86 92 89 83 79 73 56 37 26
27 16 8 6 8 12 19 27 36 39 44 50 50 45 48 71 64 49 52 48 62 58 61 75 72 76 78 84 97 99 98 100 100 100 100 100 97 97 100 100 100 96 92 90 89 87 82 76 54 37 30 25 24 22
36 26 16 8 8 10 15 23 34 38 40 42 42 40 39 51 62 54 70 98 100 97 92 87 88 65 51 50 58 60 62 74 80 82 85 87 88 90 90 89 89 86 82 74 60 45 30 26 26 27 25 23 20 18
39 37 27 16 8 10 12 17 22 30 38 40 41 42 42 38 36 42 46 66 88 98 100 98 96 89 71 55 43 51 57 51 46 45 42 41 38 37 37 34 32 28 25 26 27 28 28 28 27 24 23 26 33 47
45 40 37 29 18 11 10 14 18 19 25 28 31 38 46 47 43 36 37 46 73 100 99 86 79 82 86 97 99 100 98 84 81 80 66 50 40 36 35 33 33 34 36 37 36 32 28 26 37 55 63 67 70 72
64 46 41 38 31 20 12 11 14 19 24 24 24 25 30 45 45 42 39 33 38 42 54 94 91 88 82 100 100 100 100 90 81 74 73 59 44 42 42 40 37 34 33 31 31 44 61 80 86 92 95 94 90 85
95 65 50 43 39 31 22 15 11 14 18 25 31 29 28 29 48 61 63 52 36 37 35 38 56 75 82 77 74 100 100 95 88 78 75 60 47 56 54 42 32 31 35 46 96 100 100 94 87 92 89 66 44 28
100 97 71 57 46 39 32 22 17 14 12 20 29 32 34 35 37 51 79 89 86 54 41 33 39 57 84 100 98 100 99 95 100 98 67 75 98 98 87 85 64 57 91 100 100 98 79 68 55 48 42 33 27 23
100 100 100 85 63 45 38 31 26 23 19 14 15 25 40 41 50 62 85 100 100 93 81 83 98 99 70 97 100 100 100 92 94 92 99 94 96 99 92 100 99 100 100 100 100 93 78 60 48 41 21 17 19 18
100 100 100 99 85 67 45 37 31 29 30 28 23 16 26 37 55 75 87 92 66 88 100 100 100 100 97 100 100 100 100 100 100 98 91 87 96 100 100 100 100 100 100 100 100 100 84 52 27 32 46 48 42 37
100 100 100 100 99 90 68 44 34 34 34 40 39 34 26 23 28 41 50 62 65 70 93 100 98 89 80 95 100 100 100 99 98 96 100 99 94 87 100 100 100 100 93 76 54 37 30 34 41 47 51 49 38 38
100 100 100 100 100 100 96 72 43 38 34 39 53 54 50 47 42 31 30 31 44 53 55 61 76 84 89 77 76 96 100 99 92 91 100 100 100 100 100 100 100 100 100 100 100 92 69 43 41 45 52 48 39 29
100 100 100 100 100 100 100 95 67 42 32 37 39 50 56 64 62 52 49 42 30 24 38 54 59 64 67 68 74 75 79 97 100 100 100 100 100 100 100 100 100 100 100 100 100 98 83 74 64 53 42 30 24 27
100 100 100 100 100 100 100 100 98 75 49 33 30 33 41 62 70 67 74 72 61 53 40 27 20 32 48 59 61 62 68 74 88 100 100 100 100 100 100 100 100 100 100 100 100 100 100 96 84 55 40 41 43 34
100 100 100 100 100 100 100 100 100 99 87 41 29 26 26 29 37 56 80 89 86 80 72 61 48 34 20 19 39 61 74 86 84 90 100 100 100 100 100 100 98 100 100 100 100 99 88 77 69 65 55 46 42 39
92 100 100 100 100 100 100 100 100 100 100 60 25 21 19 22 22 22 32 55 82 90 88 81 72 59 49 40 25 15 27 65 96 100 100 100 100 100 100 100 100 100 100 100 100 100 98 93 83 73 67 66 58 52
100 100 100 100 100 100 100 100 100 100 95 52 20 18 21 30 34 34 25 21 33 51 67 82 84 78 70 58 49 39 19 13 29 92 100 100 100 100 100 100 100 100 100 100 100 100 100 100 100 95 82 78 80 78
100 100 100 100 100 100 100 100 100 98 75 45 43 63 50 43 44 47 46 38 24 27 44 61 74 81 80 72 63 51 39 22 12 16 47 98 100 100 100 100 100 100 100 100 100 100 100 100 100 99 97 100 100 96